Regional Weather Roundup
Issued by NWS

Home | Current Version | Previous Version | Graphics & Text | Print | Product List | Glossary On
Versions: 1 2 3 4 5 6 7 8 9 10 11 12 13 14 15 16 17 18 19 20 21 22 23 24 25 26 27 28 29 30 31 32 33 34 35 36 37 38 39 40 41 42 43 44 45 46 47 48 49 50
000
ASUS43 KLMK 280510
RWRKY
KENTUCKY REGIONAL WEATHER ROUNDUP
NATIONAL WEATHER SERVICE LOUISVILLE KY
100 AM EDT SAT MAY 28 2016

NOTE "FAIR" INDICATES FEW OR NO CLOUDS BELOW 12,000 FEET
WITH NO SIGNIFICANT WEATHER AND/OR OBSTRUCTIONS TO VISIBILITY.

KYZ001>023-026-027-061>063-070>075-280600-
WESTERN AND SOUTH CENTRAL KENTUCKY

CITY           SKY/WX    TMP DP  RH WIND       PRES   REMARKS
PADUCAH        CLOUDY    75  63  66 S5        29.91R
HENDERSON      CLOUDY    75  63  64 S10       29.91S
OWENSBORO      PTCLDY    75  67  76 SE8       29.95F
HOPKINSVILLE   CLOUDY    75  65  69 SE8       29.95F
BOWLING GREEN  CLOUDY    72  65  78 S10G21    30.03R
GLASGOW        LGT RAIN  68  68 100 SW7       30.05S
$$

KYZ024-025-028>034-038-045-046-053-280600-
NORTH CENTRAL KENTUCKY

CITY           SKY/WX    TMP DP  RH WIND       PRES   REMARKS
LOUISVILLE/SDF CLOUDY    74  64  71 S10       30.01R
LOUISVILLE/LOU CLOUDY    73  66  78 S9        30.02R
FORT KNOX      CLOUDY    70  66  88 SE9       30.01S
$$

KYZ035>037-039>044-047>052-055>060-089>105-280600-
NORTHEAST KENTUCKY

CITY           SKY/WX    TMP DP  RH WIND       PRES   REMARKS
LEXINGTON      PTCLDY    72  64  76 SE7       30.05S
COVINGTON      MOCLDY    72  65  78 S8        30.03R
FRANKFORT      CLEAR     73  64  73 S10       30.03R
$$

KYZ054-064>069-076>088-106>120-280600-
SOUTHEAST KENTUCKY

CITY           SKY/WX    TMP DP  RH WIND       PRES   REMARKS
JACKSON        CLOUDY    67  65  93 VRB3      30.09F
LONDON         PTCLDY    68  64  87 SE3       30.09R
SOMERSET       PTCLDY    68  63  83 CALM      30.09R
MIDDLESBORO    CLOUDY    64  64  99 CALM      30.12S
MONTICELLO     MOCLDY    69  65  86 W12       30.08S
$$




USA.gov is the U.S. government's official web portal to all federal, state and local government web resources and services.